Theta_e
322 325 325 326 326 325 326 327 328 329 330 332 331 331 332 331 330 330 331 329 327 329 330 330 330 330 329 329 328 328 328 328 328 327 327 327 327 327 327 327 327 327 327 327 327 327 327 327 327 326 326 327 327 327 327 327 327 327 327 327 326 326 326 324 322 322 322 322 323 323 323 323 322 321 320 319 317 315 315 319 324 323 321 321 322 322
322 326 328 326 325 325 325 326 327 328 331 332 330 330 332 333 331 330 330 328 327 329 331 330 330 330 329 329 328 328 329 328 328 328 327 327 327 327 326 327 328 327 327 327 327 327 327 327 327 327 327 327 327 327 326 326 326 327 327 326 326 326 326 325 323 322 322 323 323 324 324 324 324 323 322 321 320 318 315 316 320 323 323 321 321 322
323 326 327 326 325 325 325 325 327 328 330 333 331 329 332 333 332 331 328 325 325 327 329 330 329 329 328 328 327 326 327 328 327 327 328 328 327 327 327 327 327 327 327 327 327 327 327 327 327 327 327 327 326 326 326 325 325 326 326 326 326 326 326 326 324 323 322 323 323 323 323 323 324 324 323 322 321 320 318 315 316 320 323 323 322 321
323 324 324 323 324 325 327 326 327 329 331 334 331 328 330 331 332 331 328 325 324 326 327 328 328 327 326 326 325 325 325 326 327 327 327 327 327 327 327 327 327 327 328 327 327 327 327 327 327 327 327 326 327 326 326 325 325 324 325 325 325 326 326 326 325 325 324 323 322 322 323 323 325 325 324 324 322 321 319 317 315 315 319 323 323 322
323 323 322 323 324 325 328 328 328 330 332 333 331 328 329 331 331 330 329 326 324 326 326 326 328 327 325 326 324 324 324 324 325 325 325 326 326 327 327 327 327 326 327 327 327 327 326 326 326 327 327 327 327 326 325 325 324 324 324 324 324 324 325 325 326 325 325 324 323 323 323 325 326 326 326 324 323 322 320 319 318 315 314 318 323 323
321 321 321 323 325 326 328 330 329 330 331 332 330 328 328 331 331 329 328 326 327 329 327 326 330 329 326 326 325 323 324 323 323 323 324 324 324 325 326 326 326 326 326 326 326 325 325 325 325 326 326 326 326 325 325 324 324 323 323 323 322 323 324 325 325 325 325 324 324 324 324 325 326 326 326 325 324 323 321 320 319 318 315 314 318 322
321 321 321 322 325 326 327 329 329 329 331 331 328 326 326 328 329 329 328 329 330 330 326 325 329 329 326 325 325 324 323 323 323 323 323 324 324 325 325 326 326 326 326 326 325 325 325 325 325 325 325 325 325 323 323 323 323 322 322 322 322 322 323 324 324 324 324 324 324 324 324 325 325 325 325 324 323 322 321 320 319 319 318 316 314 317
321 321 322 321 323 324 325 327 328 328 331 330 326 325 326 326 328 328 327 328 329 327 326 325 327 328 327 325 324 324 324 322 322 322 323 324 325 325 326 326 325 325 325 325 325 326 325 325 326 325 324 323 322 320 320 320 321 321 321 321 321 321 321 322 322 323 323 323 323 323 324 324 325 324 324 324 322 321 320 320 319 319 319 318 316 315
320 320 321 321 322 323 323 325 327 327 329 327 324 323 324 324 326 327 327 327 327 327 328 327 326 329 327 324 324 324 322 322 321 321 322 324 326 326 325 325 324 324 324 324 324 324 325 326 326 325 323 321 320 319 319 319 320 320 320 320 320 320 321 321 321 321 321 322 322 323 324 324 324 324 324 324 322 320 320 320 319 319 319 318 318 317
321 320 320 320 321 322 322 323 326 328 327 324 323 323 322 323 324 325 328 328 327 328 328 327 326 328 327 324 326 325 323 323 323 322 322 322 324 326 325 324 324 324 323 323 324 325 326 326 325 323 321 320 319 319 319 319 319 319 319 319 320 320 320 320 320 320 321 321 322 322 323 324 324 324 324 324 323 321 320 320 319 319 319 318 318 318
321 320 319 320 320 321 322 323 324 326 324 323 325 325 324 325 326 326 328 328 328 329 328 325 325 327 327 326 327 327 325 324 324 324 323 322 323 324 324 324 324 323 323 323 324 325 325 324 322 321 320 319 319 319 319 318 318 318 318 319 319 319 319 318 319 320 320 320 321 321 322 322 323 324 324 324 324 323 321 320 319 319 318 318 318 318
321 321 320 320 320 320 322 323 322 322 322 324 327 327 325 326 326 325 326 327 329 330 328 325 325 326 327 327 326 326 325 325 326 325 325 324 323 323 323 323 323 323 323 323 324 324 324 323 320 320 319 319 319 318 317 317 317 317 317 317 318 317 317 317 317 319 320 320 321 321 321 322 322 322 323 324 324 324 323 321 319 320 320 319 319 319
322 321 321 321 320 320 321 322 322 322 323 325 325 325 324 325 325 325 326 327 328 329 328 326 326 327 327 325 324 325 324 324 324 324 324 323 322 322 323 323 323 322 322 322 323 323 322 321 319 319 319 318 318 317 317 316 317 317 316 317 317 317 317 317 317 318 318 319 320 320 321 321 321 322 322 323 323 324 324 323 322 322 321 320 319 319
323 322 321 321 321 320 320 321 323 323 323 323 323 323 323 324 325 326 326 328 328 329 329 327 327 329 328 324 323 323 323 323 323 322 323 322 322 322 322 323 323 322 322 322 322 321 321 320 319 319 319 318 318 317 317 317 317 317 317 316 317 317 316 316 317 317 318 319 319 319 320 320 321 321 321 321 321 322 323 324 324 323 323 322 320 319
323 324 322 321 321 320 319 319 321 321 321 321 321 321 321 322 324 325 326 328 328 328 328 327 328 330 329 325 322 321 321 322 323 323 323 323 323 323 322 323 323 323 322 321 321 321 320 319 318 319 318 318 318 318 317 317 318 317 317 317 317 316 316 316 316 317 318 319 319 319 320 320 320 320 320 320 320 320 321 322 323 323 323 322 322 322
322 323 321 320 320 320 319 318 319 320 320 320 321 322 321 321 323 324 325 326 325 325 326 327 328 327 325 322 320 320 322 322 322 323 322 323 323 322 323 323 323 323 322 322 322 321 319 318 319 319 318 318 318 318 318 318 317 317 317 317 317 316 316 316 316 317 317 317 318 319 319 320 320 320 320 320 320 320 319 319 320 321 321 321 322 323
321 322 321 319 319 319 319 319 318 319 321 321 322 322 322 323 325 324 323 322 322 323 324 325 325 323 321 322 322 322 323 322 322 322 321 322 323 322 322 322 323 322 321 322 322 320 319 319 318 318 318 318 318 318 319 318 318 317 317 317 317 317 317 316 316 316 316 316 316 317 317 318 319 319 319 319 319 319 318 319 319 319 320 320 321 322
322 323 320 318 320 319 318 319 318 317 320 321 321 320 320 323 325 324 323 323 323 323 324 325 325 324 324 326 326 324 324 323 323 322 321 321 321 322 322 322 322 321 321 322 321 320 319 318 318 318 318 318 318 318 319 319 318 317 317 318 317 318 318 317 317 316 316 316 316 316 316 316 317 318 318 319 319 319 319 318 318 319 319 320 321 322
323 324 321 318 319 319 317 319 320 319 318 320 321 319 320 324 324 322 322 324 324 323 324 327 326 325 325 325 324 323 323 323 323 323 322 321 320 321 322 322 322 321 322 322 320 319 319 318 318 318 318 317 316 317 319 318 315 314 317 318 318 318 318 318 318 318 317 316 315 316 316 316 316 316 317 318 318 319 318 318 317 318 319 319 319 321
325 324 322 319 318 319 318 319 320 320 318 319 320 319 321 324 324 322 322 324 326 324 324 326 326 325 323 321 321 321 321 322 321 321 322 321 320 321 321 321 322 321 321 320 319 318 318 318 318 318 318 316 315 317 319 317 312 311 315 318 318 318 318 318 318 319 318 318 316 316 315 315 316 316 316 317 318 318 318 317 317 318 318 318 318 319
323 323 323 321 319 319 319 318 318 319 319 319 320 321 321 321 322 323 322 323 324 324 323 324 324 324 322 319 320 321 321 322 321 322 322 320 319 320 319 319 319 319 319 319 319 318 318 318 318 318 317 315 314 317 318 317 312 310 313 317 317 316 316 316 317 317 318 319 318 317 316 315 315 315 316 317 317 318 318 318 318 317 317 317 317 317
320 321 322 322 321 320 318 317 317 318 318 318 319 320 320 319 320 322 322 322 321 322 323 323 323 323 321 319 320 320 320 320 320 320 321 319 318 318 317 317 318 318 319 319 318 317 318 318 317 318 317 314 313 317 318 318 315 311 311 315 316 315 314 314 314 315 316 318 319 319 318 316 314 315 316 317 317 318 318 318 317 317 317 317 316 316
319 320 321 320 320 319 318 317 317 317 317 318 318 318 319 319 319 320 321 321 320 321 321 322 323 322 319 318 320 319 318 318 318 318 318 317 317 317 317 317 317 318 319 319 318 318 318 317 317 316 315 313 312 315 318 318 317 314 311 314 317 316 314 314 313 312 313 316 318 319 319 318 315 314 314 315 317 317 317 317 316 316 316 316 316 315
319 319 320 320 319 318 317 317 318 317 317 318 318 318 318 319 318 319 320 320 320 321 321 321 322 321 318 318 318 317 316 317 317 318 317 317 317 317 317 318 318 319 319 318 318 318 317 317 316 314 313 312 310 312 317 318 318 316 312 313 316 315 314 314 313 312 311 312 316 318 319 319 317 315 313 313 314 314 315 315 315 315 315 314 314 315
318 318 320 321 320 319 319 319 320 319 318 319 318 317 317 318 318 319 320 320 320 320 321 321 321 319 318 319 318 316 317 317 316 317 317 317 317 317 318 318 318 318 319 318 318 318 317 316 315 313 313 313 311 311 316 318 317 315 312 312 313 312 312 312 312 312 311 309 312 316 318 319 318 317 314 312 312 313 313 313 313 313 313 313 313 314
317 319 320 320 320 321 320 320 320 319 318 319 319 319 318 319 319 320 319 320 319 320 321 321 320 319 318 319 319 318 318 318 316 317 317 317 317 318 318 318 319 318 318 318 318 318 317 316 315 313 313 313 312 313 316 316 313 312 311 312 312 311 311 311 311 311 310 310 310 313 317 318 318 318 316 313 312 311 312 312 312 312 312 312 313 313
318 319 318 317 319 320 319 318 319 319 318 318 319 320 319 318 319 319 319 319 319 319 320 320 320 320 320 319 318 317 318 318 317 316 316 317 317 318 318 318 318 318 318 318 317 317 316 315 314 313 313 313 312 313 315 313 312 312 313 313 313 312 311 310 310 310 309 310 311 313 316 318 318 319 318 316 314 313 312 312 311 311 311 311 311 311
318 317 316 317 318 318 318 318 318 318 318 318 318 319 319 319 319 319 319 319 318 318 319 319 319 321 319 317 317 317 317 318 317 316 316 317 317 317 317 317 316 316 316 315 315 315 315 315 314 313 313 312 312 313 313 313 313 315 315 314 313 312 311 311 311 310 310 311 312 314 316 318 318 318 318 318 318 317 316 315 313 312 310 310 310 310
317 316 316 317 317 318 319 319 318 318 317 317 317 318 318 319 319 319 319 318 319 319 319 318 319 320 319 317 317 316 316 316 316 316 316 316 315 315 315 315 314 314 314 314 314 314 314 314 313 313 313 313 312 313 313 313 314 315 315 314 312 311 311 312 312 312 312 313 314 315 317 317 318 318 318 318 319 319 319 318 316 313 311 311 310 309
315 315 315 317 317 317 319 320 319 318 317 317 318 318 318 319 319 319 318 318 319 319 318 318 320 319 318 317 317 316 316 316 315 315 314 314 313 313 314 314 314 314 314 313 313 312 312 313 313 313 313 312 313 313 313 313 314 314 313 313 312 312 312 313 313 313 314 315 316 316 317 317 318 318 318 318 318 319 319 319 318 315 313 312 311 310
313 314 315 316 316 316 317 318 318 318 318 317 317 317 317 318 319 319 318 318 318 319 319 318 319 318 317 316 316 316 316 315 314 314 313 313 313 313 313 314 313 313 313 312 311 311 312 313 313 313 313 313 313 313 314 314 313 313 312 313 313 314 314 314 314 315 316 316 317 317 317 317 317 318 318 318 318 318 318 319 319 318 315 312 311 310
311 314 315 315 315 316 316 317 318 318 317 317 317 317 317 317 317 317 316 316 317 318 318 318 318 317 316 315 315 315 314 313 313 312 312 312 312 312 312 311 311 311 311 311 311 311 311 311 311 312 313 313 314 314 314 314 313 313 313 314 314 314 314 315 316 316 316 316 316 317 317 317 317 317 318 318 318 318 318 318 318 319 317 314 313 311
313 315 316 316 315 316 316 317 317 316 316 315 316 316 316 316 315 315 315 315 315 316 316 317 317 315 314 314 314 313 312 311 310 310 311 311 310 310 310 310 310 310 310 310 310 310 310 310 310 312 313 314 314 314 314 313 313 313 313 314 314 314 315 316 315 314 314 314 314 314 315 316 316 316 316 317 318 318 318 318 318 318 318 317 315 314
313 315 316 316 315 315 316 316 316 316 315 314 314 314 314 314 314 314 314 313 313 313 314 313 313 312 313 314 314 312 312 311 310 310 310 310 309 309 309 309 309 309 309 309 309 309 310 311 312 313 314 314 314 313 313 313 313 314 314 314 315 315 315 314 313 313 312 312 312 312 313 313 313 314 314 315 317 317 317 318 318 318 318 318 317 316
314 314 315 314 313 314 315 315 314 314 313 313 312 313 313 312 313 313 313 311 311 312 312 311 311 312 312 312 311 311 311 310 310 310 309 309 309 309 309 309 309 309 309 309 309 311 312 313 313 314 313 313 313 313 313 314 314 315 315 315 315 315 314 313 312 312 311 311 312 312 312 311 311 312 312 313 314 315 316 317 317 318 318 318 318 318
314 314 313 313 313 313 314 313 312 312 312 311 313 313 311 312 312 312 312 311 310 311 312 312 311 311 310 310 310 310 310 310 310 309 309 309 310 310 310 309 310 310 310 311 311 312 313 313 312 312 312 312 312 313 313 314 314 314 314 314 314 313 313 312 312 312 312 312 312 312 312 312 311 311 311 311 312 312 313 314 315 316 317 317 318 318
313 313 313 313 313 313 312 312 311 311 311 310 311 310 309 310 311 312 312 311 310 310 311 311 311 311 310 309 310 310 310 310 309 308 309 311 312 312 311 311 311 312 312 312 312 312 312 312 311 311 311 311 310 311 311 311 311 311 311 311 312 312 312 311 312 312 312 312 312 312 312 312 312 312 311 311 311 311 312 312 312 313 315 316 317 317
313 313 313 312 313 312 311 311 311 311 310 309 309 310 309 308 310 311 311 310 310 309 309 310 311 310 310 309 308 308 308 309 309 308 310 312 312 311 311 312 312 311 312 312 312 312 312 312 311 310 309 308 308 308 309 309 309 309 309 310 310 311 311 311 311 311 312 312 312 311 311 311 311 312 312 311 311 311 311 311 311 312 312 313 315 316
313 313 312 311 312 312 311 310 310 310 309 308 309 310 309 308 308 309 310 311 309 307 306 308 308 308 307 307 307 307 309 310 310 308 308 309 308 308 309 310 310 310 309 310 310 310 310 310 311 310 309 307 306 306 306 306 307 307 308 309 309 310 311 311 311 311 311 311 312 312 311 311 311 311 311 311 311 311 311 311 311 311 311 312 312 313
312 313 312 311 311 311 310 310 309 308 308 310 310 309 308 308 308 310 311 311 309 307 307 307 306 305 306 306 306 308 310 311 310 308 306 305 304 303 303 305 307 307 307 307 307 307 306 306 307 308 307 306 305 305 305 305 305 306 307 308 309 309 309 310 310 310 311 311 311 311 311 310 311 311 311 311 311 311 311 311 311 312 312 311 311 311
310 311 311 310 310 311 310 309 309 308 308 310 310 307 307 308 309 310 310 309 308 310 311 309 308 307 307 308 308 309 309 308 307 306 304 302 302 301 299 300 302 303 304 305 304 304 304 304 305 306 306 305 304 303 302 303 303 303 305 306 307 308 308 308 308 308 309 309 309 310 310 310 310 310 310 310 310 311 311 310 311 311 312 312 312 311
309 310 310 309 309 309 308 308 309 308 307 309 309 306 307 310 310 308 307 308 309 310 310 310 310 309 308 308 308 308 305 303 302 303 302 301 300 299 298 298 299 301 301 301 300 299 301 301 302 303 303 302 302 301 301 301 301 301 302 303 304 306 306 307 308 308 308 307 307 308 309 309 309 308 308 309 309 310 310 310 310 311 311 312 312 311
308 309 309 309 308 308 308 308 308 308 307 307 308 308 308 309 310 308 307 308 308 308 309 310 309 308 308 306 305 304 303 301 300 301 301 300 300 299 297 298 299 299 298 297 297 296 297 298 298 299 298 298 298 298 299 299 300 299 300 300 301 303 304 305 306 307 308 308 307 307 307 308 307 307 306 307 307 308 309 309 309 309 310 311 311 311
308 308 309 309 308 308 308 307 306 308 309 307 307 309 308 307 309 308 307 307 307 307 307 307 306 306 306 305 303 302 301 300 299 299 299 299 299 298 298 297 297 297 296 295 295 295 295 296 297 297 297 296 296 297 297 297 298 298 298 298 299 299 301 302 304 305 306 307 308 307 307 307 306 306 305 305 305 306 307 308 308 309 309 309 309 310
307 307 308 309 308 307 307 307 305 307 308 307 308 308 307 305 307 308 307 308 308 307 306 306 305 304 304 303 301 300 299 299 298 298 297 297 297 297 297 296 295 295 295 295 295 295 295 295 296 296 297 296 296 296 296 296 296 297 297 297 297 297 298 299 300 301 303 305 306 307 307 306 306 306 306 306 305 305 305 305 306 307 308 308 308 308
306 305 306 308 308 307 306 306 305 305 306 307 308 308 306 306 307 308 307 308 309 307 305 305 305 303 302 301 300 299 298 298 297 297 297 296 296 296 296 295 295 294 294 294 294 294 295 295 295 296 296 296 296 295 295 295 295 295 296 296 296 296 296 297 297 298 299 300 301 303 304 304 304 304 305 305 305 305 305 305 305 305 306 307 308 308
305 305 306 307 308 308 307 307 306 304 304 306 307 308 307 307 307 308 308 309 308 307 305 304 303 301 300 299 298 297 298 297 296 295 295 295 295 295 295 295 295 294 294 294 294 294 294 294 294 294 295 295 295 295 295 295 295 295 295 295 295 295 296 296 296 296 297 297 297 298 299 300 300 300 301 301 302 303 304 305 305 305 305 305 306 307
304 305 307 307 306 306 308 308 306 305 305 306 306 308 308 307 307 307 308 307 306 304 303 302 300 299 297 297 296 296 296 295 294 294 294 294 294 294 294 294 294 294 293 293 293 293 293 294 294 294 294 294 294 294 295 294 294 294 294 294 294 295 295 295 296 296 296 296 296 296 297 297 298 298 298 298 299 300 301 302 303 304 304 305 305 306
304 305 307 308 306 306 306 306 305 306 307 306 306 307 307 306 305 305 305 304 302 302 301 299 298 296 296 295 295 294 294 294 293 293 293 293 293 293 293 293 293 293 293 293 293 293 293 293 293 293 293 294 294 294 294 294 294 294 294 294 294 295 295 295 295 295 295 296 296 296 296 296 297 297 297 297 298 299 299 300 301 302 303 303 304 305
304 305 306 308 307 306 305 305 305 306 307 305 304 305 305 304 304 303 301 300 300 299 298 296 295 294 294 294 293 293 293 293 293 293 293 293 293 293 293 293 293 293 293 293 293 293 293 293 293 293 293 294 294 294 294 294 294 295 295 295 295 295 295 295 295 295 295 295 295 296 296 296 296 296 297 297 297 298 299 299 300 301 301 302 303 304
305 305 305 306 306 305 305 305 305 306 305 302 301 301 301 301 301 301 299 298 297 295 294 294 293 293 293 293 293 292 292 292 292 292 292 293 293 293 293 293 293 293 293 293 293 293 293 294 293 293 294 294 294 294 294 295 295 295 295 295 295 295 296 296 296 296 295 295 295 295 296 296 296 296 296 297 297 297 298 298 299 299 300 300 301 302
Wind_Speed
13 6 5 8 8 12 13 14 13 7 6 3 2 2 6 8 7 7 7 9 12 9 7 10 10 9 10 11 10 16 19 17 17 17 18 19 20 20 20 20 21 21 22 21 22 23 22 23 23 23 24 25 26 26 26 28 29 29 29 31 31 31 30 29 29 29 30 31 31 31 32 32 32 33 33 33 32 31 30 31 33 34 34 34 33 32
10 7 10 13 10 10 12 12 13 13 10 3 2 2 6 7 7 7 5 4 7 4 4 6 8 9 9 10 11 14 13 12 14 14 16 18 19 19 19 20 21 22 22 21 22 23 23 24 25 25 27 28 30 30 29 29 29 30 31 31 31 30 31 31 30 31 32 33 32 31 31 30 32 34 35 34 34 32 30 30 32 34 35 35 35 34
6 7 9 8 6 8 11 12 13 14 11 5 3 3 4 5 6 7 3 5 4 1 3 5 7 7 7 8 12 14 11 12 17 19 20 21 20 20 20 21 22 22 22 22 22 23 23 24 25 26 28 29 30 30 29 28 28 29 31 32 32 31 31 32 32 33 34 35 35 34 34 33 33 34 35 35 34 32 30 30 31 33 35 36 36 36
5 5 3 2 2 7 10 13 13 11 10 6 5 4 4 5 5 4 3 5 4 2 2 4 6 6 6 7 10 16 17 16 19 22 24 26 25 24 24 24 23 22 22 22 23 23 24 25 25 26 27 27 28 28 27 26 25 26 28 29 31 31 31 32 33 34 35 35 36 36 35 35 34 34 35 36 36 35 33 32 32 32 34 36 37 37
5 4 5 3 3 4 7 11 12 9 8 6 6 7 6 4 5 4 1 3 4 2 2 2 5 5 6 8 10 15 20 20 23 25 26 30 30 28 28 27 26 25 25 25 26 27 28 28 28 27 27 26 27 27 26 25 24 24 25 25 26 29 31 32 33 33 34 35 36 36 36 35 35 35 36 38 39 38 36 35 34 33 33 34 36 37
6 7 9 4 3 1 4 7 9 8 6 6 6 8 8 5 6 6 3 3 1 2 4 3 3 4 4 8 11 11 13 15 20 23 25 30 30 27 26 26 27 27 27 28 29 30 30 29 28 27 26 27 28 27 25 24 23 23 23 23 23 24 28 32 34 34 34 35 36 37 38 38 38 39 40 41 40 38 37 36 35 34 33 33 34 36
4 10 10 7 2 2 1 3 5 6 5 4 3 3 7 8 9 7 3 2 2 2 2 5 4 4 2 5 7 8 8 10 12 12 18 26 26 23 23 23 24 25 26 28 28 26 24 23 23 23 23 23 22 20 20 20 19 18 18 19 20 22 25 29 32 33 34 35 37 39 39 39 40 41 41 41 39 37 36 36 36 35 34 33 33 34
7 13 11 10 9 2 2 1 1 4 5 2 2 4 3 3 4 5 5 4 2 1 3 2 3 4 7 5 5 8 10 13 12 9 11 16 18 19 19 19 21 23 25 25 24 22 20 19 19 18 16 15 15 16 17 16 15 14 14 15 18 19 22 25 28 31 34 35 37 38 39 39 40 41 40 39 38 37 36 37 38 37 36 34 33 33
11 16 15 14 12 7 8 5 2 3 4 2 2 5 7 6 5 3 3 3 2 2 3 3 3 4 9 4 6 9 12 14 14 11 9 11 15 16 17 20 23 25 25 23 21 19 18 18 16 14 12 12 15 16 16 16 15 15 17 18 18 19 21 23 25 29 32 34 35 36 38 39 40 39 39 39 38 38 37 38 39 39 38 36 35 34
6 18 21 16 10 9 11 8 4 4 3 3 1 6 7 6 7 6 4 3 4 2 6 7 5 5 10 4 5 7 9 10 11 8 8 12 16 18 19 22 23 23 20 17 16 14 13 13 14 13 14 15 16 16 15 14 14 16 17 18 18 19 21 23 25 27 30 32 33 35 37 38 39 39 39 39 39 39 39 39 40 41 40 39 37 36
5 18 21 13 10 11 10 6 4 6 7 5 4 6 6 6 5 4 4 4 3 4 8 10 9 7 9 4 4 5 5 7 7 4 6 12 16 18 19 21 21 18 15 12 10 9 10 11 13 14 14 14 14 14 14 13 12 13 14 16 18 20 22 24 26 27 28 30 32 33 34 36 38 39 39 40 40 40 40 40 41 41 41 40 39 37
6 12 11 8 13 14 10 5 3 6 9 6 4 4 4 4 3 3 2 2 2 7 7 9 11 9 9 5 2 3 4 4 5 6 6 7 11 14 16 18 17 14 11 10 8 9 12 13 14 14 13 12 12 13 12 12 11 12 13 15 18 19 21 23 25 27 28 29 31 32 34 35 36 37 39 40 40 40 40 41 41 41 41 41 40 40
5 8 7 7 15 19 13 6 4 4 5 6 6 5 2 1 1 0 1 2 4 6 4 5 10 8 10 11 9 10 9 7 5 6 6 4 5 11 15 16 16 14 11 9 8 10 12 12 12 13 12 11 12 13 12 11 10 10 11 14 17 18 19 20 22 25 28 28 29 30 31 33 34 36 38 39 40 40 40 40 41 41 42 42 42 42
4 6 9 7 9 17 15 9 6 5 7 8 7 7 5 4 2 2 3 1 2 4 4 4 7 4 5 8 9 12 14 18 17 13 11 11 13 17 19 19 18 16 12 10 10 10 8 9 12 13 12 12 13 14 13 11 11 11 12 12 14 16 18 19 20 22 25 27 28 28 29 30 31 34 35 36 38 39 40 40 41 41 42 43 44 44
6 5 11 9 7 16 15 12 11 6 8 10 5 5 6 5 4 3 3 1 1 2 4 3 4 2 3 2 5 9 11 16 24 24 20 18 19 21 22 21 18 15 14 13 12 9 6 9 13 14 13 13 15 16 14 14 15 16 16 15 15 15 15 16 18 20 23 26 28 28 28 28 29 31 32 34 35 36 38 38 39 39 40 42 44 44
9 5 9 11 11 19 16 11 11 8 5 6 4 4 5 5 5 1 1 3 2 2 3 3 2 2 3 8 13 14 13 10 11 16 18 20 22 23 21 19 17 15 14 13 9 6 8 11 13 13 15 16 17 17 16 18 20 18 17 16 16 16 15 15 15 17 19 21 25 27 29 29 30 30 31 32 32 33 33 33 33 34 36 39 41 42
8 5 11 12 10 18 18 13 13 10 5 4 5 5 2 2 5 3 1 3 2 3 4 3 4 5 5 10 12 10 10 8 6 6 10 16 19 18 17 17 15 13 12 10 5 6 10 12 12 14 17 19 19 19 18 20 22 21 20 20 20 20 18 15 14 15 16 18 20 22 25 27 29 31 32 33 32 31 29 29 30 31 33 36 38 40
5 4 10 13 10 15 19 16 12 8 5 4 6 6 3 3 2 3 2 2 3 6 5 5 8 5 3 6 6 5 6 7 7 7 9 13 14 15 17 18 14 10 8 4 4 8 11 12 13 16 19 20 21 21 19 18 21 23 22 22 23 24 24 21 19 16 16 17 20 21 23 24 26 29 31 33 33 31 30 31 32 32 33 33 35 37
4 3 5 11 11 12 15 13 7 4 4 3 5 9 6 0 2 4 3 3 5 6 4 5 7 6 6 7 7 8 10 7 7 7 7 10 14 17 17 15 11 7 3 3 6 9 11 12 14 16 18 20 21 22 20 18 22 24 23 22 23 23 24 24 24 22 20 18 19 21 23 24 25 27 29 30 30 31 32 33 33 32 32 32 32 34
3 4 3 7 9 10 9 8 7 5 3 4 3 6 5 1 2 5 4 2 3 5 5 4 4 4 7 8 8 10 10 8 9 9 7 10 12 10 8 7 5 2 3 5 6 8 11 12 13 13 15 20 21 22 21 19 22 27 23 21 22 23 24 24 24 24 23 22 20 20 20 22 25 27 28 28 27 27 28 28 29 30 30 30 30 31
2 3 3 5 8 9 7 7 10 11 7 5 5 6 6 3 1 1 3 2 2 3 4 5 5 4 4 6 8 9 9 9 9 8 8 6 2 6 7 5 4 4 4 3 4 7 9 10 11 11 15 21 22 21 21 19 23 29 26 22 22 22 23 24 25 25 25 24 23 22 21 20 22 24 26 26 25 26 26 26 27 28 28 29 29 30
2 2 4 5 6 8 8 7 9 10 10 9 7 9 9 7 4 2 4 3 2 2 2 2 5 5 3 3 4 7 6 6 4 2 2 4 9 10 9 9 8 5 3 2 4 8 10 11 13 15 19 24 23 21 22 21 23 29 28 24 22 22 23 24 26 27 27 25 24 24 24 22 20 20 22 25 26 28 28 29 29 28 28 28 28 29
4 3 4 4 4 4 2 2 3 6 12 10 6 6 7 6 6 5 4 3 2 2 1 0 2 6 4 2 4 5 6 9 7 5 6 7 9 9 10 11 8 5 5 5 6 10 12 14 16 19 25 27 24 21 22 22 24 28 30 27 24 23 25 26 27 28 28 27 26 25 25 24 22 20 21 23 26 29 29 30 29 29 29 29 28 29
3 3 5 4 2 2 3 4 6 4 5 8 6 7 7 7 8 5 2 2 3 3 3 2 3 7 5 4 7 9 8 12 10 4 6 7 10 11 12 11 9 7 6 6 8 12 14 15 19 25 30 29 24 21 22 23 24 27 30 29 26 27 29 30 31 30 29 29 27 26 25 25 24 22 21 22 25 27 28 28 28 28 29 29 29 30
5 4 7 6 3 2 2 2 2 3 2 6 7 9 8 8 8 4 1 2 1 5 7 5 5 7 4 2 7 8 5 7 9 5 5 7 10 11 10 9 8 8 7 8 11 13 14 18 26 31 30 27 25 23 22 23 25 28 30 29 29 31 32 32 33 33 32 31 29 27 26 25 24 23 22 23 23 24 25 26 27 28 28 29 29 30
7 4 7 7 7 8 6 6 6 5 4 3 3 7 9 10 11 7 4 3 3 7 8 5 5 7 6 6 9 8 6 7 10 11 12 12 12 12 9 7 7 6 7 10 12 13 20 28 32 31 28 27 25 22 22 25 27 28 28 29 32 34 35 35 35 35 35 34 31 29 27 25 24 23 22 22 23 23 24 25 26 27 28 28 29 30
3 1 6 7 6 7 5 5 8 9 7 6 7 11 12 12 13 8 4 6 7 7 6 6 6 8 11 13 12 9 6 7 10 12 13 13 12 13 14 13 13 11 11 14 16 22 30 33 30 27 27 26 23 22 24 27 29 27 27 31 34 37 38 38 37 37 37 36 33 30 28 26 25 23 22 21 21 22 23 24 26 27 27 27 28 29
3 3 10 9 7 5 3 6 10 12 12 14 14 14 13 13 13 10 8 9 8 6 7 8 9 8 12 17 16 10 6 7 9 11 12 14 14 16 19 23 25 24 23 23 26 28 30 29 28 27 26 24 24 25 26 28 28 26 27 31 35 39 41 40 39 39 38 37 34 31 29 28 26 25 24 22 21 22 23 23 24 25 25 26 26 27
3 4 9 9 8 5 4 8 12 13 12 13 14 15 14 14 14 13 13 12 8 7 8 9 10 11 14 17 16 12 9 9 12 15 19 22 22 20 20 23 26 27 27 27 27 26 26 26 26 26 25 25 27 28 27 27 27 28 30 33 36 39 40 40 40 40 39 37 34 32 31 30 28 27 27 25 23 23 24 25 24 23 23 24 24 25
2 3 5 5 6 4 3 6 6 8 9 10 12 13 12 13 14 13 13 12 11 11 10 9 10 11 11 11 14 19 20 17 19 25 27 24 20 18 19 21 22 24 25 25 24 24 24 24 23 24 26 28 27 27 28 29 30 32 35 37 37 38 38 39 40 39 37 36 34 32 31 30 29 29 28 28 27 25 25 25 25 24 23 22 22 23
1 4 4 5 3 3 2 3 2 5 6 5 6 7 7 9 10 9 8 9 10 12 12 11 10 10 11 13 20 27 26 20 20 27 29 23 17 15 18 19 19 21 21 21 22 23 22 21 23 24 25 27 27 28 29 31 33 36 37 37 35 37 37 37 36 35 35 35 34 34 33 31 30 29 29 29 29 28 27 25 25 25 24 22 22 22
2 2 3 5 3 3 5 6 6 4 5 3 3 3 4 6 8 9 9 10 11 11 10 10 10 10 12 13 17 22 21 17 18 22 25 24 21 16 16 18 20 18 16 17 21 23 24 26 28 28 27 26 26 26 28 31 34 35 35 35 35 36 36 34 32 32 33 34 34 34 34 33 32 30 29 29 29 29 28 27 27 26 25 24 23 23
5 3 3 5 5 4 6 8 6 4 4 5 6 8 11 11 11 11 9 10 13 12 9 9 10 10 9 6 8 14 16 16 17 20 20 20 21 22 25 28 28 22 18 23 28 29 30 32 31 29 26 23 22 24 27 31 33 33 34 35 35 33 32 32 32 32 32 31 30 29 30 31 31 30 29 28 28 29 29 29 28 27 27 27 25 26
7 6 4 5 4 4 6 8 6 5 6 7 8 13 17 16 15 14 13 13 14 11 9 8 7 7 5 6 9 13 16 20 24 25 22 21 22 25 28 31 33 31 30 34 36 32 28 25 23 21 21 21 24 27 28 30 32 32 33 33 32 30 31 33 34 33 29 26 24 23 22 24 25 27 27 27 28 29 30 30 29 28 28 28 29 29
6 6 3 3 3 3 5 7 5 6 9 7 6 10 14 16 16 15 14 14 14 12 10 9 9 8 8 11 15 18 22 28 30 28 28 29 27 24 25 29 33 36 36 34 31 27 22 18 18 20 22 25 27 27 26 27 28 28 28 29 30 31 33 34 34 31 27 23 20 19 18 19 20 22 23 24 26 28 30 31 30 29 29 29 30 31
6 5 3 2 3 3 4 5 5 5 3 4 6 7 10 12 11 11 12 13 12 10 9 9 11 11 12 17 21 22 26 29 28 30 31 26 18 17 22 27 27 25 25 24 23 23 21 20 20 21 22 23 22 21 22 23 24 26 28 29 32 34 35 33 31 28 25 23 21 19 18 19 20 20 20 21 23 25 27 28 30 30 31 31 32 32
7 6 3 2 4 3 4 4 3 2 5 8 8 5 7 8 7 7 8 8 8 9 10 11 12 11 12 16 19 23 25 20 17 23 21 8 2 6 12 16 16 13 13 16 18 21 23 23 22 20 20 19 17 18 20 22 24 25 26 27 28 29 29 27 25 24 24 23 22 20 19 20 21 21 21 21 21 22 23 25 26 28 30 32 34 34
5 5 5 4 3 3 4 3 2 2 7 9 5 5 9 11 8 7 4 4 6 11 14 11 10 10 11 12 18 23 19 10 7 10 5 4 2 3 3 7 10 10 10 13 16 19 22 24 23 20 19 17 15 16 18 20 21 21 20 20 20 21 22 23 22 22 22 22 21 20 20 20 21 21 22 21 21 22 22 23 24 26 28 31 33 35
4 3 5 5 3 4 5 4 4 6 8 5 3 4 11 17 13 10 4 6 8 10 13 10 8 10 12 15 20 18 9 5 7 4 2 2 4 4 1 4 7 8 9 11 12 14 16 18 21 21 20 19 17 16 16 18 18 18 18 17 17 18 19 21 22 22 22 22 21 20 20 21 21 21 22 22 22 22 22 22 23 24 26 29 31 33
4 2 3 5 4 4 5 4 3 5 7 5 6 5 11 21 17 10 2 8 5 5 10 14 14 16 19 20 19 10 4 5 6 0 3 3 4 4 3 3 4 6 8 8 9 11 11 11 14 17 18 19 19 18 19 19 19 19 19 19 18 19 19 20 21 22 23 23 22 21 21 21 21 21 22 23 23 23 23 23 22 23 25 27 29 32
3 2 3 5 5 4 5 4 3 5 5 6 7 8 16 19 11 5 5 6 4 8 4 6 8 8 9 8 5 4 5 3 3 3 2 4 5 6 6 5 3 4 5 6 9 12 12 12 12 13 14 16 18 20 21 22 22 21 20 21 21 21 21 21 22 23 23 24 24 23 22 21 20 20 21 21 23 23 23 22 22 22 23 25 27 29
4 3 3 5 4 4 3 2 3 6 4 11 14 16 18 12 2 6 5 4 9 11 8 7 6 2 2 4 6 8 7 5 3 1 3 5 8 10 10 8 5 4 4 7 11 13 15 15 14 15 16 16 17 19 21 23 24 23 22 22 22 23 24 24 24 25 25 25 25 25 24 23 22 22 22 22 22 23 23 21 20 21 22 23 25 27
6 5 5 5 4 3 2 3 3 6 5 17 19 13 10 6 4 6 7 9 10 11 8 8 7 5 6 7 7 8 6 2 1 3 5 7 10 12 12 9 7 6 8 12 14 15 16 17 16 16 16 16 16 17 19 21 23 23 23 23 23 24 25 25 25 26 26 26 26 26 25 25 25 25 25 25 25 25 25 23 21 20 20 21 22 24
5 5 5 4 4 4 4 6 5 1 6 16 15 7 11 12 5 5 6 6 9 11 10 10 11 10 10 9 7 5 2 2 4 6 8 9 11 12 12 10 9 11 15 17 17 17 18 19 19 17 16 16 16 16 17 19 21 22 23 24 24 25 26 26 26 27 27 27 27 27 27 27 27 27 28 28 28 29 28 28 26 24 22 21 21 22
7 7 4 4 5 5 5 9 8 4 10 12 8 7 19 21 9 3 4 4 8 11 11 12 14 13 10 7 4 1 3 5 7 9 10 10 11 13 14 15 16 17 20 20 19 18 18 19 21 20 18 17 16 16 18 19 20 21 22 23 25 26 27 27 28 28 28 28 28 28 28 28 28 28 29 29 30 31 31 31 31 29 28 26 25 24
6 7 5 4 4 4 6 12 10 2 4 8 8 8 17 19 14 11 11 11 12 12 11 13 15 13 8 3 0 3 5 7 8 9 9 11 13 14 16 19 21 21 22 21 20 18 18 20 21 21 21 20 18 19 20 21 21 22 22 22 24 25 27 28 29 29 29 29 29 29 29 29 29 29 29 29 30 31 33 33 33 33 32 31 31 30
3 7 5 2 4 4 5 10 11 10 9 7 9 10 13 14 14 14 13 13 13 12 12 14 13 9 4 1 3 4 5 6 7 9 11 14 16 17 19 21 23 23 24 23 21 21 21 21 22 22 23 23 22 22 23 24 24 24 24 25 26 27 28 29 30 30 30 29 28 28 28 28 29 30 30 30 31 31 32 33 34 35 35 34 33 33
4 9 7 5 6 5 4 4 4 7 10 7 8 12 14 14 13 12 11 11 13 14 13 12 9 5 3 2 3 4 5 6 9 13 16 18 20 21 22 23 24 25 25 25 24 23 23 23 23 24 24 25 25 26 27 28 28 27 27 27 28 29 29 29 30 31 31 30 30 29 28 28 29 30 31 31 32 33 33 34 34 35 35 34 34 34
9 9 5 3 4 6 7 2 4 2 3 1 6 11 15 14 13 14 14 13 15 14 10 7 5 3 2 2 3 6 9 12 14 16 19 21 22 23 23 23 24 25 26 26 26 25 25 25 26 26 27 27 27 28 29 30 31 31 31 31 32 32 33 32 33 34 34 34 34 33 32 31 31 31 31 32 33 33 34 34 35 36 36 35 33 33
9 6 3 3 4 7 8 5 4 2 2 3 10 13 14 15 16 17 16 13 12 9 6 5 4 3 2 3 7 10 13 16 16 18 20 21 22 23 25 25 26 26 27 27 27 28 28 28 28 28 29 29 29 30 31 32 33 34 34 34 35 36 36 37 37 38 38 38 37 37 37 36 35 34 33 34 34 35 35 34 35 36 37 37 35 34
7 6 6 5 5 5 5 7 12 9 2 8 14 16 15 14 15 15 12 9 7 6 3 1 2 5 7 9 11 12 14 15 16 18 20 22 22 23 24 25 26 27 28 29 29 30 30 30 29 29 29 30 31 32 34 35 35 35 34 34 34 35 36 37 38 39 40 40 40 40 40 40 39 39 37 36 36 37 37 37 37 36 37 38 38 37
Wind_Direction
175 155 196 211 204 201 202 205 210 219 217 192 79 303 264 256 235 213 222 193 182 202 220 223 239 241 246 255 247 246 248 239 230 227 225 230 235 240 245 247 246 246 247 249 250 252 254 253 253 254 258 262 264 266 266 265 264 264 265 264 264 266 264 261 257 251 247 247 248 249 251 254 258 260 260 261 262 261 260 256 250 247 246 247 249 250
181 197 211 205 210 206 203 211 213 223 230 186 110 266 264 256 250 237 232 166 158 195 233 230 244 242 244 258 259 253 249 249 249 247 243 242 240 238 240 244 246 248 249 250 252 253 254 255 254 252 254 257 260 264 266 266 267 267 267 265 265 266 263 261 259 253 249 250 253 256 260 265 266 263 261 263 265 265 264 260 254 249 247 247 247 249
181 228 225 194 214 221 208 209 212 223 224 197 176 244 270 240 253 258 210 112 112 184 262 261 265 258 257 263 264 261 251 248 252 253 254 253 252 248 243 244 246 249 250 249 251 253 256 258 259 257 256 258 260 263 267 268 269 267 265 264 263 263 263 261 258 255 253 254 258 261 265 268 267 265 263 263 263 262 262 261 258 253 250 248 247 248
176 227 226 125 276 243 223 209 207 223 225 206 173 199 254 227 220 232 166 148 159 188 275 281 278 273 279 281 279 273 264 257 253 250 252 251 251 250 249 249 248 249 250 250 250 252 256 259 261 262 262 263 264 265 267 269 271 269 267 265 263 261 262 262 259 257 258 258 259 261 264 266 264 262 261 259 258 258 258 258 258 257 253 250 249 249
170 148 126 101 329 260 229 215 206 213 220 214 188 201 237 240 243 255 179 184 180 201 267 315 300 269 245 249 256 263 261 256 251 248 250 250 249 249 250 250 250 251 254 254 253 253 257 259 260 261 264 265 267 270 273 275 275 274 272 269 266 262 260 260 259 259 258 257 256 255 256 256 254 252 251 251 253 255 255 256 257 258 256 253 251 250
197 166 132 123 348 340 204 212 211 212 215 213 200 216 237 244 264 263 198 179 171 238 207 153 286 269 207 229 239 243 247 245 241 238 240 246 248 248 248 250 253 257 259 258 258 259 259 260 260 258 259 261 265 272 278 280 278 275 271 268 266 262 257 257 258 258 257 255 254 253 252 251 249 248 248 252 257 258 260 260 260 260 259 257 254 251
198 177 146 147 169 33 51 204 204 204 203 208 207 248 254 241 243 252 235 183 177 256 212 158 217 270 269 247 253 262 265 258 247 234 232 237 239 241 242 248 253 256 259 260 261 263 263 262 262 261 260 258 264 276 281 281 277 270 266 264 264 262 257 256 258 258 256 255 254 253 253 254 253 253 255 258 261 263 264 264 262 262 261 259 256 254
164 178 173 180 195 232 282 253 130 172 171 188 329 17 15 295 263 260 266 242 192 318 312 200 188 276 278 245 241 264 275 273 268 262 244 231 227 230 236 244 251 255 259 261 263 265 267 266 266 270 267 259 270 286 286 282 279 270 269 271 269 266 263 260 259 258 257 255 254 253 253 254 254 255 258 259 260 261 262 261 261 262 262 261 258 256
159 178 187 191 197 212 223 220 105 108 118 155 314 36 57 26 15 12 302 284 337 6 270 225 153 270 274 229 192 227 244 256 259 257 251 228 215 220 232 242 250 257 262 264 267 268 264 262 268 279 281 279 290 297 293 286 280 272 273 275 272 270 270 267 263 259 258 257 255 253 253 253 255 256 257 257 258 259 258 258 260 261 262 262 261 258
162 182 185 184 192 207 208 201 154 121 110 150 58 38 44 27 30 30 13 2 355 317 241 233 186 239 276 253 175 212 224 238 251 249 244 235 223 219 228 240 251 259 266 268 267 265 256 258 273 287 297 302 305 307 303 295 283 274 271 269 268 270 271 270 267 262 259 258 256 254 253 254 256 257 255 254 254 256 255 255 257 259 262 263 262 261
146 177 179 180 192 192 177 159 143 144 140 121 52 35 23 12 32 28 19 48 14 267 242 235 212 228 272 257 180 209 214 222 235 230 242 238 224 219 229 244 254 259 265 269 266 265 266 275 290 303 312 317 317 314 310 303 290 279 272 266 264 265 267 268 266 264 262 259 257 256 256 257 258 257 254 252 253 253 254 255 256 258 260 263 263 264
125 164 172 179 179 161 132 111 95 118 130 114 75 64 24 353 18 32 34 87 222 248 238 222 214 225 251 251 185 231 242 235 221 211 230 211 191 211 231 240 248 255 263 269 273 281 286 298 313 322 328 331 331 330 322 310 295 280 270 265 263 263 267 269 267 263 262 260 259 259 257 257 257 255 253 253 253 253 253 255 257 256 257 260 262 263
150 168 157 154 164 156 139 120 107 108 128 125 121 122 102 285 285 339 195 171 220 253 269 206 200 212 240 254 264 262 259 259 240 220 239 239 223 250 255 256 266 278 276 266 270 283 290 310 329 335 344 353 350 345 338 325 310 294 281 272 269 268 269 272 270 265 262 262 265 264 262 260 258 256 254 254 254 254 253 254 255 255 255 257 259 262
156 182 161 141 155 163 156 148 162 173 169 167 162 162 172 193 220 233 218 246 247 256 286 223 201 207 231 248 263 263 255 247 241 240 247 253 259 266 269 274 281 281 271 263 274 288 303 333 344 347 356 6 2 357 356 354 351 341 328 313 299 289 280 276 273 268 263 262 266 268 267 266 262 259 258 257 257 256 255 254 253 255 256 258 260 262
175 196 171 163 159 168 174 178 174 153 165 187 180 164 185 193 199 220 211 221 254 272 284 227 203 213 202 261 318 315 301 255 235 235 242 245 251 258 265 272 275 270 267 269 278 296 338 352 350 355 3 12 12 10 11 8 2 354 344 337 330 321 308 294 284 278 271 266 267 269 271 272 270 268 265 263 262 260 258 257 257 258 259 261 263 264
196 208 166 169 162 167 181 182 156 128 150 189 142 148 209 198 176 189 168 142 106 337 295 213 218 280 263 299 304 302 315 306 254 240 239 244 252 256 262 267 262 260 270 275 279 310 353 359 359 4 10 16 18 18 19 16 11 5 358 351 345 338 327 313 300 293 288 280 275 274 275 276 276 275 272 269 266 263 261 260 261 263 264 264 264 264
200 192 163 166 162 173 181 168 159 161 161 161 156 173 211 136 137 150 179 110 102 262 256 212 254 283 279 294 290 264 260 270 274 266 245 250 256 253 253 254 248 253 272 281 300 352 6 8 9 11 12 14 17 18 19 20 17 12 11 10 8 3 354 338 318 302 295 291 285 280 279 279 278 277 276 274 270 267 263 261 264 269 268 265 263 262
182 161 166 168 165 179 178 164 165 171 142 143 174 159 91 34 96 137 191 157 169 238 243 212 233 242 231 269 280 274 267 240 228 241 246 251 253 248 246 243 243 255 269 292 13 17 14 16 14 12 9 5 6 9 11 12 9 5 5 6 6 6 5 1 352 335 315 300 291 287 284 282 282 281 278 276 273 269 264 264 269 271 269 266 264 260
152 122 177 182 169 166 166 162 163 144 109 110 155 151 138 96 179 162 185 193 190 219 233 207 214 209 202 228 250 274 287 278 250 243 240 242 239 238 238 234 240 250 241 46 32 22 20 21 17 11 2 352 350 353 353 354 356 356 357 357 356 356 357 358 358 355 347 332 313 299 292 286 284 282 280 278 276 272 268 266 268 269 269 269 266 262
135 122 189 198 170 151 157 174 179 162 112 65 109 161 170 159 176 179 176 180 195 209 227 217 199 197 210 222 234 248 259 270 270 265 262 252 235 219 210 202 197 161 79 35 19 18 15 12 9 3 353 344 338 339 340 341 350 354 353 352 351 349 349 349 348 349 348 346 338 323 307 294 286 281 279 278 276 274 273 272 271 272 274 275 272 268
96 111 152 171 159 159 179 198 188 175 156 140 151 172 188 178 122 186 185 169 164 187 215 229 228 229 204 201 214 225 233 240 242 248 259 256 169 93 81 76 49 25 12 352 346 357 357 353 350 340 338 341 334 331 333 333 345 352 349 346 348 345 344 344 342 341 338 339 339 336 327 311 294 284 279 276 274 275 278 280 280 280 280 278 275 273
138 122 140 156 169 182 200 199 182 172 166 171 179 177 186 184 154 166 200 185 167 192 196 209 247 256 212 181 225 225 231 246 246 270 311 72 76 63 40 15 353 325 284 275 319 343 347 342 337 327 328 336 332 324 324 324 335 344 342 338 339 340 340 340 340 338 334 331 331 333 335 328 312 295 283 276 274 275 279 281 282 281 278 275 275 274
150 109 135 162 176 177 194 152 127 165 179 186 200 188 185 187 179 183 195 182 177 227 259 132 260 264 237 231 281 263 265 288 311 1 29 40 32 8 352 342 322 281 256 278 314 338 341 336 334 328 326 331 330 319 313 314 325 334 333 331 331 332 332 333 334 334 333 329 325 325 330 332 325 308 291 282 276 276 279 281 281 280 277 276 276 274
111 107 146 146 124 56 23 23 28 28 179 189 207 203 187 192 198 190 152 147 163 192 212 192 238 267 255 225 258 267 273 282 295 10 46 5 335 323 325 320 296 267 262 282 313 328 333 331 327 325 323 325 327 317 304 306 314 318 319 323 327 325 324 325 325 327 329 328 324 320 322 327 328 317 300 291 285 281 280 281 282 281 280 279 277 274
146 160 162 151 146 131 96 90 20 352 228 200 200 198 192 189 192 188 127 109 156 200 203 196 222 254 258 218 258 276 289 289 298 340 8 335 309 296 297 297 282 265 264 288 307 314 321 323 321 320 318 317 320 316 304 301 304 305 308 315 321 321 320 320 319 320 324 325 324 318 316 319 324 320 307 296 293 291 288 285 284 283 282 282 280 277
163 165 167 170 174 175 170 171 176 184 202 194 162 182 195 192 187 188 191 191 206 208 202 199 224 253 281 291 284 291 309 309 307 316 323 323 313 305 305 302 285 269 274 288 294 301 311 315 316 316 314 312 315 314 304 301 303 304 304 308 314 318 319 316 314 316 319 321 321 318 313 311 314 317 312 300 294 294 293 291 289 286 285 284 284 282
145 158 185 198 194 186 184 165 140 136 157 177 181 189 199 203 196 180 171 202 211 211 211 213 223 253 276 276 270 272 287 299 299 301 307 310 310 313 318 318 308 295 291 292 293 298 305 308 310 312 311 311 313 308 300 301 306 306 302 303 309 314 316 314 312 313 315 317 318 316 311 306 305 308 311 307 301 298 296 294 292 290 289 287 285 285
109 182 194 204 209 200 176 153 139 138 167 189 192 195 198 202 201 191 196 209 202 205 229 222 211 233 260 263 264 264 257 265 275 284 291 293 292 296 300 299 296 294 294 294 293 296 299 301 305 309 308 308 308 304 301 304 307 304 300 303 308 309 310 311 310 311 312 313 314 313 309 304 301 300 302 305 305 304 303 300 294 291 290 288 287 287
110 188 199 196 203 207 145 150 151 152 174 187 189 199 201 198 200 203 211 215 200 203 227 220 203 215 240 256 268 270 260 259 273 282 283 282 283 286 285 282 283 287 289 289 290 293 295 298 303 305 305 305 305 302 302 306 306 301 300 303 305 305 305 307 309 310 311 311 311 310 308 305 302 298 297 298 299 300 302 302 299 294 289 288 290 290
103 188 203 178 198 218 112 119 139 146 162 181 188 195 196 196 203 209 215 218 215 219 229 228 224 230 242 262 271 269 270 278 285 283 278 276 279 279 276 274 275 280 284 286 291 296 297 299 301 301 301 303 304 301 302 304 302 299 301 304 304 303 304 306 309 311 312 312 311 310 309 307 305 301 298 296 296 294 294 295 296 295 291 288 288 289
182 188 177 141 172 239 150 147 196 140 130 160 185 181 176 182 193 207 220 222 219 225 229 230 241 251 251 253 261 268 275 280 279 278 278 281 279 270 268 271 274 278 283 289 294 296 299 301 299 297 298 299 300 299 300 301 300 301 303 305 304 303 304 307 310 311 312 312 312 311 309 308 307 305 302 299 298 295 292 290 289 289 289 285 283 282
167 159 149 138 161 221 184 185 207 170 139 181 204 178 183 187 189 200 208 205 204 210 215 220 234 244 240 241 255 270 275 269 261 266 275 284 289 289 289 287 286 287 292 295 293 294 300 303 300 297 296 296 296 296 298 298 299 301 301 302 302 302 304 307 309 309 310 311 312 311 309 307 306 304 303 302 300 297 294 291 287 285 284 281 278 276
164 149 145 154 170 212 189 175 179 162 168 212 210 200 207 212 212 214 214 208 202 197 197 209 220 230 237 233 246 265 269 264 262 263 268 282 297 303 302 298 297 300 300 296 294 296 300 301 300 298 296 295 293 293 295 296 296 297 297 298 301 303 305 306 307 309 311 311 311 310 308 307 306 304 302 298 296 295 293 292 290 288 286 282 278 273
175 168 169 163 162 199 180 151 139 165 205 220 207 199 205 210 211 215 221 221 215 209 215 228 232 235 234 215 224 247 256 260 267 272 279 290 295 296 296 296 298 299 297 295 297 300 302 298 295 293 292 292 293 293 294 293 291 293 294 297 301 303 303 305 307 310 311 311 312 312 310 306 304 304 302 297 293 291 290 290 290 289 287 285 283 280
165 163 173 160 141 163 144 120 137 207 220 228 216 201 206 213 215 218 227 231 229 229 233 241 248 241 228 227 235 244 254 263 273 282 288 289 288 289 291 290 290 291 293 296 297 299 300 295 292 293 292 292 293 292 291 288 287 290 292 296 298 299 300 303 305 305 307 308 312 315 315 312 308 307 305 301 296 292 290 290 289 287 284 282 282 282
157 161 161 147 146 140 123 144 195 232 250 256 251 223 208 211 211 216 237 244 238 235 234 235 242 239 233 241 247 252 263 273 280 285 287 289 287 280 278 281 285 289 290 291 292 293 296 298 299 299 296 295 293 288 284 281 282 284 287 289 291 292 295 298 298 298 301 305 310 314 315 316 316 314 313 309 304 299 297 294 291 288 285 282 280 279
156 158 151 169 171 150 148 185 213 326 314 268 251 220 196 201 192 190 229 253 233 221 226 229 238 244 245 251 256 261 269 276 281 284 288 294 239 244 252 261 272 279 276 275 279 284 290 296 301 303 299 296 294 290 285 283 282 283 284 285 286 287 290 293 293 295 299 303 308 312 314 314 314 314 314 314 312 308 304 300 296 293 288 285 282 280
143 158 157 170 180 138 149 187 179 200 251 252 224 156 168 182 173 154 186 263 238 218 222 225 236 247 251 258 260 261 267 274 276 280 280 130 181 272 226 232 259 274 272 268 269 273 278 284 291 298 305 305 301 295 290 289 291 291 292 292 290 288 288 289 292 295 297 300 305 311 314 314 313 312 312 313 313 312 310 306 301 297 292 289 286 284
81 103 127 158 194 155 158 196 196 209 243 237 146 135 167 168 149 112 126 256 253 229 226 225 233 240 236 241 247 248 245 244 254 270 65 70 312 326 344 248 266 285 291 286 281 277 275 276 278 284 295 302 303 302 299 300 304 305 305 304 300 296 292 291 293 295 296 299 303 306 310 312 312 312 313 312 312 311 311 309 306 302 297 293 290 288
89 102 124 165 198 172 166 196 208 239 248 183 122 95 140 150 136 103 128 256 249 202 218 219 221 232 234 236 241 235 194 213 233 121 53 347 341 21 15 316 289 293 300 302 302 298 293 287 279 279 286 293 300 306 308 308 311 313 313 313 309 305 302 298 298 299 300 302 303 303 306 308 308 309 311 312 312 311 310 310 310 309 306 301 296 293
137 170 162 170 188 189 189 204 241 263 238 165 139 128 129 129 124 136 210 232 130 102 127 187 196 223 233 230 223 168 129 131 130 103 16 332 347 1 5 6 339 312 312 308 307 309 307 305 300 296 299 303 306 309 310 311 314 315 316 316 315 313 310 308 307 307 306 307 307 307 308 309 308 308 308 309 310 310 310 312 312 312 312 311 308 304
164 165 176 176 179 190 185 179 265 276 207 150 149 147 135 125 175 213 181 108 107 108 106 130 146 149 127 111 112 125 120 99 105 159 308 325 325 328 344 352 336 323 327 316 316 315 308 305 306 305 307 310 310 310 310 310 312 315 316 316 316 315 313 312 312 310 310 312 314 314 313 313 313 314 313 312 310 308 309 312 313 312 311 313 314 313
160 153 189 198 171 156 152 153 220 276 202 156 149 143 144 162 199 164 118 92 114 132 138 156 171 183 167 143 127 135 143 146 233 267 287 294 301 316 335 344 337 331 330 324 322 319 310 306 306 306 308 314 315 313 311 308 307 310 314 316 316 314 313 313 312 311 311 313 314 316 317 317 319 321 321 321 319 315 312 312 312 311 311 312 312 312
173 168 188 200 163 144 168 193 204 262 144 147 140 149 192 196 169 114 116 119 139 147 152 161 167 172 172 161 146 148 178 291 308 310 308 302 303 311 320 328 326 322 322 323 321 317 312 306 303 302 305 314 320 319 315 312 310 309 311 313 313 311 310 310 310 311 311 311 312 313 315 318 320 323 325 326 325 323 321 319 317 314 313 312 311 310
202 191 155 161 185 175 198 221 211 129 119 134 125 162 189 194 206 236 222 204 179 171 169 167 166 164 163 159 148 140 322 319 316 319 321 315 308 307 311 317 318 317 319 321 320 317 311 305 302 300 299 306 318 322 317 315 314 312 310 310 309 309 308 308 308 310 310 311 311 311 312 314 316 319 322 324 325 326 326 326 325 321 318 316 314 313
214 192 141 130 200 220 253 253 245 223 136 144 135 160 187 200 220 232 225 220 206 188 174 171 170 165 158 152 327 323 314 307 305 309 311 305 301 301 304 308 313 317 318 318 318 317 312 308 306 303 299 300 309 316 314 313 315 314 312 311 311 311 311 310 310 310 310 310 310 309 309 310 311 313 316 318 320 322 324 326 327 326 324 322 320 317
233 193 170 148 175 182 248 255 244 247 245 201 164 169 184 200 216 216 210 208 197 179 168 164 162 159 163 241 294 303 305 304 304 302 299 300 301 301 301 304 308 312 315 316 317 315 311 309 309 307 304 302 304 308 310 309 310 311 312 315 317 315 311 309 309 308 308 308 307 306 307 307 308 310 313 314 316 318 319 322 324 325 326 327 325 322
189 181 192 214 197 193 231 229 201 240 256 240 204 196 191 193 199 192 185 182 168 158 157 156 158 177 216 241 273 290 296 301 304 305 305 305 304 303 303 304 306 308 310 312 313 312 310 309 308 307 306 303 303 304 303 304 306 308 311 315 315 312 308 307 307 306 307 309 309 308 307 307 307 309 311 313 315 316 316 318 319 320 322 325 326 324
159 165 177 183 195 237 257 231 98 34 315 189 169 185 189 188 179 161 155 155 152 152 157 160 170 197 206 219 273 296 303 306 308 308 306 304 303 303 303 303 303 303 304 305 307 308 308 308 308 307 305 303 302 302 302 303 307 311 314 316 316 313 311 311 311 310 311 311 311 310 309 308 307 308 309 310 311 312 313 314 315 316 317 320 322 322
151 165 166 137 178 235 250 228 180 225 290 145 148 157 164 166 161 153 150 149 151 161 174 175 177 191 236 290 302 307 306 305 305 304 301 300 300 300 299 300 300 299 300 301 302 304 307 310 311 309 307 306 306 307 308 310 312 315 317 318 317 317 317 317 316 315 314 314 313 312 311 310 309 308 308 307 308 308 308 308 310 311 312 314 316 317
176 176 167 172 206 227 231 223 221 227 197 126 140 143 143 149 154 152 148 147 156 168 183 230 282 296 300 302 304 303 298 296 295 292 291 291 292 293 294 296 297 298 300 302 304 307 310 312 313 312 311 311 313 315 316 316 316 317 319 318 317 316 317 317 316 315 314 314 313 312 311 310 309 309 308 307 306 306 305 304 303 304 306 308 310 311